Location: Chippewa Lake
(41.0698°N, 81.9010°W)
Time: 12:10:27
(UTC+00:00)

FALCON 9 DEB - Visible Passes

Search period start: 21 September 2021 00:00
Search period end: 01 October 2021 00:00
Orbit: 358 x 371 km, 53.0° (Epoch: 20 September)

Date Brightness Start Highest point End Pass type
(mag) Time Alt. Az. Time Alt. Az. Time Alt. Az.
27 Sep 5.0 10:36:50 10° S 10:39:23 25° SE 10:41:57 10° ENE visible
29 Sep 4.3 10:02:40 17° SSW 10:04:34 33° SE 10:07:21 10° ENE visible
30 Sep 6.1 09:00:34 11° ESE 09:00:34 11° ESE 09:00:58 10° ESE visible
30 Sep 2.9 10:32:25 15° WSW 10:34:45 60° NW 10:37:47 10° NE visible
